Charlevoix, MI

5:29 PM EDT on August 29, 2016 (GMT -0400)
Charlevoix Municipal

Weather History for KCVX - July, 2013

Change the Weather History Date:

Saturday, July 13, 2013

  Actual Average Record
Temperature  
Mean Temperature 70 °F -  
Max Temperature 81 °F 80 °F 90 °F (2016)
Min Temperature 60 °F 64 °F 53 °F (2001)
Cooling Degree Days 6    
Growing Degree Days 20 (Base 50)    
Moisture  
Dew Point 59 °F    
Average Humidity 68    
Maximum Humidity 91    
Minimum Humidity 44    
Precipitation  
Precipitation 0.00 in - - ()
Sea Level Pressure  
Sea Level Pressure 30.21 in    
Wind  
Wind Speed 6 mph (SSW)    
Max Wind Speed 15 mph    
Max Gust Speed 21 mph    
Visibility 10 miles    
Events      
Averages and records for this station are not official NWS values.
T = Trace of Precipitation, MM = Missing Value Source: NWS Daily Summary

Daily Weather History Graph

Daily Weather History Graph

Search for Another Location

Airport or City:

Trip Planner

Search our weather history database for the weather conditions in past years. The results will help you decide how hot, cold, wet, or windy it might be!

Date:

Astronomy

Jul. 13, 2013 Rise Set
Actual Time 6:06 AM EDT 9:27 PM EDT
Civil Twilight 5:29 AM EDT 10:03 PM EDT
Nautical Twilight 4:41 AM EDT 10:51 PM EDT
Astronomical Twilight 3:41 AM EDT 11:50 PM EDT
Moon 11:39 AM EDT (7/13) 11:48 PM EDT (7/13)
Length of Visible Light 16h 33m
Length of Day
15h 21m
Waxing Crescent, 25% of the Moon is Illuminated
Jul 13
Waxing Crescent
Jul 15
First Quarter
Jul 22
Full
Jul 29
Last Quarter
Aug 6
New

Hourly Weather History & Observations

Time (EDT) Temp. Heat Index Dew Point Humidity Pressure Visibility Wind Dir Wind Speed Gust Speed Precip Events Conditions
12:15 AM 62.6 °F - 59.5 °F 90% 30.14 in 10.0 mi SE 4.6 mph - N/A   Clear
12:34 AM 62.2 °F - 59.0 °F 89% 30.14 in 10.0 mi SE 5.8 mph - N/A   Clear
12:54 AM 62.8 °F - 58.5 °F 86% 30.15 in 10.0 mi SE 5.8 mph - N/A   Clear
1:15 AM 62.6 °F - 58.6 °F 87% 30.15 in 10.0 mi SE 4.6 mph - N/A   Clear
1:34 AM 62.6 °F - 59.0 °F 88% 30.15 in 10.0 mi SE 6.9 mph - N/A   Clear
1:54 AM 62.8 °F - 59.0 °F 87% 30.15 in 10.0 mi ESE 4.6 mph - N/A   Clear
2:14 AM 62.1 °F - 59.0 °F 90% 30.16 in 10.0 mi SE 5.8 mph - N/A   Clear
2:34 AM 61.9 °F - 58.5 °F 89% 30.16 in 10.0 mi SE 4.6 mph - N/A   Clear
2:54 AM 62.1 °F - 58.5 °F 88% 30.16 in 10.0 mi SSE 3.5 mph - N/A   Clear
3:14 AM 62.2 °F - 58.1 °F 86% 30.17 in 10.0 mi SSE 4.6 mph - N/A   Clear
3:34 AM 63.0 °F - 57.7 °F 83% 30.17 in 10.0 mi SSE 6.9 mph - N/A   Clear
3:55 AM 63.1 °F - 57.6 °F 82% 30.17 in 10.0 mi South 6.9 mph - N/A   Clear
4:14 AM 63.3 °F - 57.4 °F 81% 30.18 in 10.0 mi SSE 8.1 mph - N/A   Clear
4:34 AM 63.1 °F - 57.4 °F 81% 30.18 in 10.0 mi SSE 6.9 mph - N/A   Clear
4:55 AM 62.8 °F - 57.4 °F 82% 30.19 in 10.0 mi SSE 5.8 mph - N/A   Clear
5:14 AM 62.6 °F - 57.6 °F 84% 30.19 in 10.0 mi SSE 8.1 mph - N/A   Clear
5:34 AM 62.6 °F - 57.7 °F 84% 30.19 in 10.0 mi SSE 5.8 mph - N/A   Clear
5:55 AM 61.7 °F - 57.6 °F 86% 30.19 in 10.0 mi SSE 3.5 mph - N/A   Clear
6:14 AM 60.8 °F - 57.4 °F 88% 30.19 in 10.0 mi SE 3.5 mph - N/A   Clear
6:34 AM 60.8 °F - 57.6 °F 89% 30.19 in 10.0 mi SE 4.6 mph - N/A   Clear
6:55 AM 60.6 °F - 58.1 °F 91% 30.19 in 10.0 mi SSE 4.6 mph - N/A   Clear
7:14 AM 61.5 °F - 58.8 °F 91% 30.19 in 10.0 mi SE 4.6 mph - N/A   Clear
7:34 AM 62.6 °F - 59.4 °F 89% 30.20 in 10.0 mi SE 5.8 mph - N/A   Clear
7:54 AM 64.4 °F - 60.4 °F 87% 30.20 in 10.0 mi South 6.9 mph - N/A   Clear
8:14 AM 66.9 °F - 61.3 °F 82% 30.23 in 10.0 mi South 6.9 mph - N/A   Clear
8:34 AM 69.1 °F - 62.1 °F 78% 30.23 in 10.0 mi South 6.9 mph - N/A   Clear
8:54 AM 70.7 °F - 62.1 °F 74% 30.23 in 10.0 mi South 6.9 mph - N/A   Clear
9:14 AM 72.7 °F - 62.4 °F 70% 30.22 in 10.0 mi SSW 5.8 mph - N/A   Clear
9:35 AM 74.3 °F - 62.4 °F 66% 30.22 in 10.0 mi South 8.1 mph - N/A   Clear
9:54 AM 74.7 °F - 62.2 °F 65% 30.22 in 10.0 mi SSE 8.1 mph - N/A   Clear
10:14 AM 75.9 °F - 62.1 °F 62% 30.21 in 10.0 mi South 8.1 mph - N/A   Clear
10:35 AM 76.8 °F - 61.0 °F 58% 30.21 in 10.0 mi South 6.9 mph - N/A   Clear
10:54 AM 78.4 °F - 60.6 °F 54% 30.22 in 10.0 mi South 9.2 mph - N/A   Clear
11:14 AM 78.6 °F - 60.6 °F 54% 30.22 in 10.0 mi South 6.9 mph - N/A   Clear
11:35 AM 79.3 °F - 59.7 °F 51% 30.23 in 10.0 mi South 5.8 mph - N/A   Clear
11:54 AM 79.9 °F - 57.9 °F 47% 30.22 in 10.0 mi SW 9.2 mph - N/A   Clear
12:14 PM 80.2 °F 80.8 °F 58.8 °F 48% 30.23 in 10.0 mi SW 8.1 mph - N/A   Clear
12:35 PM 80.6 °F 81.2 °F 59.5 °F 49% 30.23 in 10.0 mi South 8.1 mph - N/A   Clear
12:54 PM 79.5 °F - 59.5 °F 50% 30.23 in 10.0 mi SW 9.2 mph - N/A   Clear
1:14 PM 79.7 °F - 60.4 °F 52% 30.24 in 10.0 mi West 11.5 mph - N/A   Scattered Clouds
1:34 PM 80.2 °F 81.2 °F 61.3 °F 52% 30.24 in 10.0 mi West 12.7 mph 16.1 mph N/A   Scattered Clouds
1:54 PM 80.6 °F 81.1 °F 59.4 °F 48% 30.24 in 10.0 mi West 15.0 mph 20.7 mph N/A   Clear
2:14 PM 81.0 °F 81.6 °F 59.9 °F 49% 30.23 in 10.0 mi West 15.0 mph 18.4 mph N/A   Clear
2:34 PM 81.0 °F 81.2 °F 58.6 °F 46% 30.23 in 10.0 mi West 11.5 mph - N/A   Clear
2:54 PM 81.1 °F 81.6 °F 59.9 °F 48% 30.22 in 10.0 mi West 9.2 mph - N/A   Clear
3:15 PM 81.0 °F 81.5 °F 59.5 °F 48% 30.22 in 10.0 mi West 12.7 mph - N/A   Clear
3:34 PM 80.6 °F 80.8 °F 57.7 °F 45% 30.22 in 10.0 mi West 15.0 mph - N/A   Clear
3:54 PM 80.8 °F 81.1 °F 58.1 °F 46% 30.22 in 10.0 mi West 13.8 mph - N/A   Clear
4:15 PM 80.1 °F 80.5 °F 57.7 °F 46% 30.22 in 10.0 mi West 11.5 mph - N/A   Clear
4:34 PM 80.6 °F 80.8 °F 57.2 °F 45% 30.21 in 10.0 mi West 11.5 mph - N/A   Clear
4:54 PM 80.4 °F 80.6 °F 56.7 °F 44% 30.21 in 10.0 mi West 9.2 mph - N/A   Clear
5:14 PM 80.4 °F 80.7 °F 57.2 °F 45% 30.21 in 10.0 mi West 10.4 mph - N/A   Clear
5:34 PM 79.5 °F - 57.6 °F 47% 30.21 in 10.0 mi WNW 9.2 mph - N/A   Clear
5:55 PM 79.0 °F - 60.1 °F 52% 30.21 in 10.0 mi NNW 3.5 mph - N/A   Clear
6:14 PM 78.8 °F - 59.0 °F 51% 30.21 in 10.0 mi West 8.1 mph - N/A   Clear
6:34 PM 78.3 °F - 58.1 °F 50% 30.22 in 10.0 mi WNW 8.1 mph - N/A   Clear
6:55 PM 78.1 °F - 59.2 °F 52% 30.21 in 10.0 mi WNW 5.8 mph - N/A   Clear
7:14 PM 77.2 °F - 59.4 °F 54% 30.21 in 10.0 mi West 4.6 mph - N/A   Clear
7:34 PM 76.8 °F - 59.5 °F 55% 30.21 in 10.0 mi NNW 3.5 mph - N/A   Clear
7:54 PM 75.4 °F - 59.0 °F 57% 30.22 in 10.0 mi North 3.5 mph - N/A   Clear
8:14 PM 74.3 °F - 59.2 °F 59% 30.22 in 10.0 mi NNW 3.5 mph - N/A   Clear
8:34 PM 73.4 °F - 59.9 °F 63% 30.21 in 10.0 mi Calm Calm - N/A   Clear
8:54 PM 72.5 °F - 59.4 °F 63% 30.21 in 10.0 mi Calm Calm - N/A   Clear
9:14 PM 71.2 °F - 60.4 °F 69% 30.21 in 10.0 mi Calm Calm - N/A   Clear
9:34 PM 70.5 °F - 60.1 °F 69% 30.22 in 10.0 mi Calm Calm - N/A   Clear
9:54 PM 68.2 °F - 60.6 °F 77% 30.22 in 7.0 mi Calm Calm - N/A   Clear
10:14 PM 66.4 °F - 61.0 °F 83% 30.23 in 10.0 mi Calm Calm - N/A   Clear
10:34 PM 66.6 °F - 61.0 °F 82% 30.23 in 10.0 mi Calm Calm - N/A   Clear
10:54 PM 66.0 °F - 61.0 °F 84% 30.23 in 10.0 mi Calm Calm - N/A   Clear
11:15 PM 65.3 °F - 60.8 °F 85% 30.23 in 10.0 mi SE 3.5 mph - N/A   Clear
11:34 PM 64.4 °F - 60.6 °F 88% 30.23 in 10.0 mi SSE 3.5 mph - N/A   Clear
11:54 PM 66.4 °F - 60.8 °F 82% 30.24 in 10.0 mi Calm Calm - N/A   Clear